EW9824 Weather Reports


Display with metric or nautical units.
time (UTC)temp
F
wind
direction
speed
MPH
gust
MPH
rain 1hr
in
rain 24hr
in
rain mn
in
humidity
%
barometer
mb
20260502161533 58 265 1.0 4.0 0.00 0.00 0.00 79 1018.6
20260502140106 50 158 2.0 4.0 0.00 0.00 0.00 93 1017.6
20260502123032 50 152 0.0 3.0 0.00 0.00 0.00 90 1017.2
20260502121529 51 172 1.0 3.0 0.00 0.00 0.00 89 1017.2
20260502120147 51 155 1.0 3.0 0.00 0.00 0.00 89 1017.3
20260502113033 52 191 2.0 4.0 0.00 0.00 0.00 87 1017.5
20260502111531 53 161 2.0 4.0 0.00 0.00 0.00 87 1017.5
20260502110031 52 132 3.0 6.0 0.00 0.00 0.00 87 1017.6
20260502104644 53 214 3.0 5.0 0.00 0.00 0.00 86 1017.6
20260502103031 53 119 2.0 4.0 0.00 0.00 0.00 87 1017.8
20260502091532 52 246 0.0 3.0 0.00 0.00 0.00 86 1018.2
20260502071532 54 159 3.0 5.0 0.00 0.00 0.00 83 1018.5
20260502070034 54 172 3.0 5.0 0.00 0.00 0.00 83 1018.5
20260502064531 55 185 2.0 3.0 0.00 0.00 0.00 81 1018.5
20260502063028 56 144 2.0 3.0 0.00 0.00 0.00 79 1018.6
20260502061530 56 135 3.0 5.0 0.00 0.00 0.00 78 1018.5
20260502060041 57 156 2.0 3.0 0.00 0.00 0.00 77 1018.5
20260502054531 58 170 1.0 4.0 0.00 0.00 0.00 75 1018.4
20260502053030 58 109 1.0 5.0 0.00 0.00 0.00 74 1018.3
20260502051604 60 155 2.0 4.0 0.00 0.00 0.00 71 1018.6
20260502050028 60 19 2.0 6.0 0.00 0.00 0.00 69 1018.2
20260502044533 61 28 4.0 7.0 0.00 0.00 0.00 69 1018.0
20260502043030 61 34 5.0 9.0 0.00 0.00 0.00 69 1017.9
20260502034607 63 319 4.0 8.0 0.00 0.00 0.00 64 1017.2
20260502033031 65 36 3.0 9.0 0.00 0.00 0.00 59 1017.3
20260502031533 66 44 3.0 7.0 0.00 0.00 0.00 57 1017.4
20260502030033 66 28 4.0 8.0 0.00 0.00 0.00 56 1017.2
20260502023032 69 322 3.0 7.0 0.00 0.00 0.00 53 1016.4
20260502021530 70 135 1.0 3.0 0.00 0.00 0.00 51 1016.2
20260502014646 74 256 0.0 2.0 0.00 0.00 0.00 40 1016.3
20260502011529 75 306 1.0 4.0 0.00 0.00 0.00 35 1016.3
20260502010029 76 292 1.0 4.0 0.00 0.00 0.00 34 1016.2
20260502004534 76 315 0.0 5.0 0.00 0.00 0.00 34 1016.3
20260502003029 76 301 2.0 4.0 0.00 0.00 0.00 34 1016.5
20260502001530 76 291 3.0 11.0 0.00 0.00 0.00 34 1016.4
20260501234605 73 318 4.0 10.0 0.00 0.00 0.00 38 1016.8
20260501233106 73 309 4.0 10.0 0.00 0.00 0.00 37 1016.8
20260501231529 75 346 4.0 9.0 0.00 0.00 0.00 37 1017.1
20260501230029 75 319 4.0 10.0 0.00 0.00 0.00 36 1017.3
20260501224646 74 313 5.0 9.0 0.00 0.00 0.00 37 1017.4
20260501221651 76 345 5.0 11.0 0.00 0.00 0.00 38 1017.8
20260501214531 73 309 4.0 11.0 0.00 0.00 0.00 39 1018.2
20260501213103 73 340 4.0 8.0 0.00 0.00 0.00 40 1018.4
20260501211529 72 357 3.0 9.0 0.00 0.00 0.00 41 1018.5
20260501210107 72 17 4.0 11.0 0.00 0.00 0.00 41 1018.6
20260501204608 71 343 4.0 8.0 0.00 0.00 0.00 41 1018.9
20260501201531 70 329 4.0 7.0 0.00 0.00 0.00 41 1019.0
20260501200031 71 320 3.0 7.0 0.00 0.00 0.00 41 1019.2
20260501194531 70 302 3.0 8.0 0.00 0.00 0.00 42 1019.4
20260501193106 69 339 2.0 7.0 0.00 0.00 0.00 43 1019.4
20260501190037 68 354 2.0 7.0 0.00 0.00 0.00 42 1019.5
20260501184603 69 327 2.0 7.0 0.00 0.00 0.00 42 1019.7
20260501183042 67 16 2.0 5.0 0.00 0.00 0.00 43 1019.9
20260501181533 65 294 1.0 5.0 0.00 0.00 0.00 44 1020.0
20260501180042 64 304 2.0 5.0 0.00 0.00 0.00 45 1020.0